Regional Weather Roundup
Issued by NWS

Home | Current Version | Previous Version | Text Only | Print | Product List | Glossary Off
Versions: 1 2 3 4 5 6 7 8 9 10 11 12 13 14 15 16 17 18 19 20 21 22 23 24 25 26 27 28 29 30 31 32 33 34 35 36 37 38 39 40 41 42 43 44 45 46 47 48 49 50

000
ASUS43 KLOT 021312
RWRIL

ILLINOIS REGIONAL WEATHER ROUNDUP
NATIONAL WEATHER SERVICE CHICAGO/ROMEOVILLE IL
700 AM CST FRI DEC 02 2016

NOTE: "FAIR" INDICATES FEW OR NO CLOUDS BELOW 12,000 FEET WITH NO
SIGNIFICANT WEATHER AND/OR OBSTRUCTIONS TO VISIBILITY.

* THESE STATIONS ARE NOT UNDER NWS QUALITY CONTROL. THEY ALSO MAY NOT
  REPORT WEATHER SUCH AS PRECIPITATION OR FOG.

ILZ001-002-007-009-015-016-024-021400-
NORTHWEST ILLINOIS

CITY           SKY/WX    TMP DP  RH WIND       PRES   REMARKS
MOLINE         CLOUDY    38  32  79 W8        30.16R WCI  32
STERLING*      CLOUDY    36  35  96 W9        30.14R WCI  29
SAVANNA*       CLOUDY    37  33  88 W6        30.13R WCI  32
$$

ILZ003-004-008-010-011-017-018-021400-
NORTH CENTRAL ILLINOIS

CITY           SKY/WX    TMP DP  RH WIND       PRES   REMARKS
ROCKFORD       CLOUDY    37  31  78 W7        30.12R WCI  32
FREEPORT*      CLOUDY    35  33  93 W8        30.13R WCI  28
ROCHELLE*      CLOUDY    35  33  92 W6        30.12R WCI  30
DE KALB*       CLOUDY    36  32  86 W7        30.11R WCI  30
$$

ILZ005-006-012>014-019>023-021400-
NORTHEAST ILLINOIS

CITY           SKY/WX    TMP DP  RH WIND       PRES   REMARKS
CHICAGO-OHARE  CLOUDY    37  30  75 W9        30.09R WCI  30
CHICAGO-MIDWAY CLOUDY    38  30  73 W8        30.11R WCI  32
AURORA         CLOUDY    37  34  89 W9        30.11S WCI  30
JOLIET*        CLOUDY    38  36  94 W5        30.13R WCI  34
WAUKEGAN       CLOUDY    34  32  92 NW3       30.08R
DUPAGE AIRPORT CLOUDY    36  32  85 W10       30.09R WCI  28
KANKAKEE*      CLOUDY    36  33  89 W9        30.14R WCI  29
WHEELING       CLOUDY    37  30  75 W7        30.10R WCI  32
MORRIS*        CLOUDY    37  34  91 W8        30.12R WCI  30
ROMEOVILLE*    CLOUDY    36  36 100 W7        30.12R WCI  30
$$

LMZ740>746-021400-
SOUTHERN LAKE MICHIGAN

STATION/POSITION SKY/WX   TEMP    WIND        PRES    VSBY  WAVE
                          AIR SEA DIR/SP/G                  HT/PER
                          (F)     (DEG/KT/KT) (MB)    (MI)  (FT/S)
SOUTHERN BUOY              40 49  300/ 23/ 27 1016.9          4/ 5
HARRISON CRIB              39     270/ 12/ 14   N/A
CALUMET HARBOR             37     240/  6/  8 1018.8R
BURNS HARBOR               40     290/ 15/ 19 1019.3R
MICHIGAN CITY              39     260/ 16/ 19   N/A
$$

ILZ025>027-034>036-040-047-049-050-058-095>099-021400-
WEST-CENTRAL ILLINOIS

CITY           SKY/WX    TMP DP  RH WIND       PRES   REMARKS
QUINCY         CLOUDY    29  26  89 SW5       30.19R WCI  24
GALESBURG*     CLOUDY    35  32  88 W6        30.16R WCI  30
MACOMB*        CLOUDY    36  32  86 W7        30.20R WCI  30
JACKSONVILLE*  CLOUDY    31  28  86 SW7       30.20R WCI  24
PITTSFIELD*    PTCLDY    30  26  88 W3        30.22R
$$

ILZ028>032-037-038-041>044-048-051>054-059>061-021400-
CENTRAL ILLINOIS

CITY           SKY/WX    TMP DP  RH WIND       PRES   REMARKS
PONTIAC        CLOUDY    37  35  93 W7        30.15R WCI  31
BLOOMINGTON    CLOUDY    35  31  85 W9        30.16R WCI  28
DECATUR        CLOUDY    37  30  75 W5        30.18R WCI  33
PEORIA         CLOUDY    37  32  82 W6        30.17R WCI  32
LACON*         CLOUDY    36  32  85 W7        30.15R WCI  31
LINCOLN*       CLOUDY    37  32  81 SW5       30.18R WCI  33
SPRINGFIELD    CLOUDY    36  30  79 W10       30.20R WCI  28
TAYLORVILLE    CLOUDY    33  30  90 W6        30.20R WCI  27
$$

ILZ033-039-045-046-055>057-062-063-021400-
EAST-CENTRAL ILLINOIS

CITY           SKY/WX    TMP DP  RH WIND       PRES   REMARKS
CHAMPAIGN      CLOUDY    36  31  82 SW7       30.17R WCI  30
RANTOUL*       CLOUDY    37  33  84 W8        30.16R FOG     WCI  31
MATTOON        CLOUDY    34  29  82 W5        30.17S WCI  30
PARIS*         CLOUDY    35  32  90 SW7       30.18R WCI  29
$$

ILZ079-100>102-021400-
SOUTHWEST ILLINOIS

CITY           SKY/WX    TMP DP  RH WIND       PRES   REMARKS
ALTON          CLEAR     27  25  93 CALM      30.22R FOG
BELLEVILLE     CLEAR     25  25  99 CALM      30.21R
CAHOKIA*       CLEAR     27  23  85 CALM      30.23R
SPARTA*        PTCLDY    29  26  88 CALM      30.23R
$$

ILZ064>066-069>071-074>076-080>082-084>086-088>090-092>094-021400-
SOUTH-CENTRAL ILLINOIS

CITY           SKY/WX    TMP DP  RH WIND       PRES   REMARKS
CARBONDALE     CLEAR     26  26 100 CALM      30.22R
CAIRO*         PTCLDY    27  26  99 CALM      30.23R FOG
EFFINGHAM*     CLOUDY    32  32 100 SW3       30.21S
MARION         CLEAR     27  27 100 CALM      30.23R
CENTRALIA*     PTCLDY    27  27  99 CALM      30.21R FOG
SALEM*         CLEAR     28  27  93 CALM      30.21R FOG
METROPOLIS*    CLEAR     27  26  95 CALM      30.24R
$$

ILZ067-068-072-073-078-083-087-091-021400-
SOUTHEAST ILLINOIS

CITY           SKY/WX    TMP DP  RH WIND       PRES   REMARKS
LAWRENCEVILLE  PTCLDY    28  26  92 NW3       30.22R FOG
FLORA*         CLEAR     30  27  90 CALM      30.22R FOG
FAIRFIELD*     PTCLDY    26  25  98 CALM      30.21S FOG
HARRISBURG*    CLEAR     27  27  99 CALM      30.23R
ROBINSON*      CLOUDY    32  29  91 W7        30.21S WCI  25
CARMI*         CLEAR     27  26  99 CALM      30.21R FOG
$$

ABBREVIATIONS USED IN REMARKS
   TC - TEMPERATURE IN CELSIUS
  WCI - WIND CHILL INDEX
   HX - HEAT INDEX
  VSB - VISIBILITY
$$





USA.gov is the U.S. government's official web portal to all federal, state and local government web resources and services.